Regional Weather Roundup
Issued by NWS

Home | Current Version | Previous Version | Graphics & Text | Print | Product List | Glossary On
Versions: 1 2 3 4 5 6 7 8 9 10 11 12 13 14 15 16 17 18 19 20 21 22 23 24 25 26 27 28 29 30 31 32 33 34 35 36 37 38 39 40 41 42 43 44 45 46 47 48 49 50
000
ASUS45 KSLC 250310
RWRUT

UTAH REGIONAL WEATHER ROUNDUP
NATIONAL WEATHER SERVICE SALT LAKE CITY UT
900 PM MDT TUE MAY 24 2016

UTZ001>011-023>025-250400-

NORTHERN UTAH

CITY           SKY/WX    TMP DP  RH WIND       PRES   REMARKS
BRIGHAM CITY     N/A     56  40  55 N10       29.90S
HILL AFB       MOCLDY    54  39  56 E9        29.91R
LOGAN          MOCLDY    51  42  71 N5        29.91S
OGDEN          MOCLDY    56  39  53 SE5       29.89S
PROVO AIRPORT  MOCLDY    59  36  41 S17G23    29.92
SALT LAKE CITY MOCLDY    60  39  45 SW3       29.90R
VERNAL         MOCLDY    60  28  29 W5        29.90R
WENDOVER       CLOUDY    55  36  47 NW15      29.90R
HEBER CITY     CLOUDY    48  36  61 CALM      29.95R
WEST JORDAN    CLEAR     55  43  62 CALM      29.92R

$$

UTZ012>022-026-027-250400-

SOUTHERN/CENTRAL UTAH

CITY           SKY/WX    TMP DP  RH WIND       PRES   REMARKS
BLANDING       PTCLDY    64  17  16 SW12      30.01R
BRYCE CANYON   PTCLDY    43  25  49 SW8       30.05R
CEDAR CITY     PTCLDY    53  25  33 SW10      29.96R
DELTA          MOCLDY    50  41  71 NE10      29.92R
HANKSVILLE     PTCLDY    64  27  24 NW13G20   29.89R
MILFORD        PTCLDY    60  21  22 SW17      29.92R
MOAB/CYNLANDS  MOCLDY    68  24  19 NW16G28   29.83R
PRICE          MOCLDY    54  34  46 N7        29.94R
ST GEORGE      MOCLDY    72  25  17 W13       29.89R

$$

REGIONAL REPORTS     COLORADO/ARIZONA

CITY           SKY/WX    TMP DP  RH WIND       PRES   REMARKS
CRAIG, CO      CLOUDY    54  29  38 W12       29.95R
GRAND JUNCTION CLOUDY    66  22  18 SW9       29.85S
RIFLE          PTCLDY    66  16  14 W18       29.88R
MONTROSE       CLEAR     64  16  15 SW3       29.94R
CORTEZ         CLEAR     61  16  17 S9        29.98R
PAGE, AZ       CLEAR     70  13  11 SW14G22   29.89R
GRAND CANYON   CLEAR     55  11  17 SW10      30.06R
KINGMAN        PTCLDY    67  27  22 SW9       29.93S
FLAGSTAFF      CLEAR     51  26  37 SW12      30.09R

$$

REGIONAL REPORTS    NEVADA/IDAHO/WYOMING

CITY           SKY/WX    TMP DP  RH WIND       PRES   REMARKS
LAS VEGAS, NV  PTCLDY    75  28  17 S9G17     29.81R
ELY            LGT RAIN  45  36  70 SE6       30.01R
ELKO           MOCLDY    50  41  71 S5        29.96R
POCATELLO, ID  CLOUDY    51  42  71 S17G25    29.89R
BURLEY         CLOUDY    59  40  49 W6        29.85R
EVANSTON, WY   CLOUDY    41  35  79 SW10      30.00S
ROCK SPRINGS   CLOUDY    44  36  73 NW10      29.99R
KEMMERER       RAIN      37  36  93 S9G18     30.04R WCI  31

$$



USA.gov is the U.S. government's official web portal to all federal, state and local government web resources and services.